Location: Muenchen
(48.1800°N, 11.5800°E)
Time: 14:53:35
(UTC+02:00)

Iridium 36 - Visible Passes

Search period start: 26 September 2017 00:00
Search period end: 06 October 2017 00:00
Orbit: 771 x 774 km, 86.4° (Epoch: 25 September)

Date Brightness Start Highest point End Pass type
(mag) Time Alt. Az. Time Alt. Az. Time Alt. Az.
26 Sep 8.3 05:37:22 10° NNE 05:41:18 21° ENE 05:45:14 10° ESE visible
26 Sep 7.5 20:17:43 10° SW 20:22:20 32° WNW 20:26:59 10° NNW visible
27 Sep 8.9 05:03:50 10° NE 05:05:57 12° ENE 05:08:03 10° E visible
27 Sep 6.4 19:42:10 10° SSW 19:47:15 56° W 19:52:23 10° N visible
28 Sep 6.8 06:07:27 10° N 06:12:28 46° E 06:17:27 10° SSE visible
28 Sep 8.7 20:50:44 10° WSW 20:53:39 15° WNW 20:56:34 10° NW visible
29 Sep 7.8 05:32:57 10° NNE 05:37:20 27° ENE 05:41:41 10° SE visible
29 Sep 8.0 20:14:05 10° SW 20:18:21 25° WNW 20:22:38 10° NNW visible
30 Sep 8.6 04:58:55 10° NNE 05:02:02 16° ENE 05:05:08 10° ESE visible
30 Sep 5.5 06:38:07 10° N 06:43:21 79° W 06:48:32 10° S visible
30 Sep 6.9 19:38:16 10° SSW 19:43:12 43° W 19:48:10 10° N visible
01 Oct 6.2 06:03:14 10° N 06:08:24 59° E 06:13:31 10° SSE visible
01 Oct 8.9 20:47:59 10° W 20:49:45 12° WNW 20:51:31 10° NW visible
02 Oct 7.3 05:28:36 10° NNE 05:33:19 34° ENE 05:38:01 10° SE visible
02 Oct 8.4 20:10:35 10° WSW 20:14:22 20° WNW 20:18:11 10° NNW visible
03 Oct 8.2 04:54:19 10° NNE 04:58:06 20° ENE 05:01:51 10° ESE visible
03 Oct 5.5 06:34:03 10° N 06:39:11 62° W 06:44:18 10° SSW visible
03 Oct 7.5 19:34:27 10° SW 19:39:09 34° WNW 19:43:53 10° NNW visible
04 Oct 8.8 04:21:04 10° NE 04:22:43 11° ENE 04:24:22 10° E visible
04 Oct 5.7 05:59:05 10° N 06:04:18 76° E 06:09:30 10° S visible
05 Oct 6.8 05:24:19 10° N 05:29:18 43° E 05:34:13 10° SSE visible
05 Oct 8.6 20:07:16 10° WSW 20:10:25 16° WNW 20:13:35 10° NNW visible
